GW7068 Weather Reports


time (UTC)temp
F
wind
direction
speed
knots
gust
knots
rain 1hr
in
rain 24hr
in
rain mn
in
humidity
%
barometer
mb
20260507021054 65 316 1.7 2.6 0.00 0.00 0.00 70 1016.0
20260507020554 65 323 0.9 1.7 0.00 0.00 0.00 70 1016.0
20260507020055 65 316 1.7 2.6 0.00 0.00 0.00 67 1015.9
20260507015556 66 339 0.9 1.7 0.00 0.00 0.00 68 1015.9
20260507015054 66 327 1.7 3.5 0.00 0.00 0.00 69 1015.9
20260507014555 66 328 1.7 2.6 0.00 0.00 0.00 67 1015.8
20260507014054 66 328 1.7 3.5 0.00 0.00 0.00 66 1015.9
20260507013554 66 332 1.7 3.5 0.00 0.00 0.00 66 1015.8
20260507013055 67 324 2.6 4.3 0.00 0.00 0.00 65 1015.9
20260507012554 67 329 2.6 4.3 0.00 0.00 0.00 65 1015.8
20260507012054 67 321 1.7 2.6 0.00 0.00 0.00 65 1015.8
20260507011554 67 316 1.7 3.5 0.00 0.00 0.00 65 1015.8
20260507011055 68 322 1.7 2.6 0.00 0.00 0.00 63 1015.8
20260507010554 67 319 0.9 1.7 0.00 0.00 0.00 63 1015.8
20260507010056 67 325 1.7 5.2 0.00 0.00 0.00 63 1015.7
20260507005554 68 330 3.5 5.2 0.00 0.00 0.00 61 1015.7
20260507005054 68 326 1.7 3.5 0.00 0.00 0.00 61 1015.7
20260507004554 68 328 3.5 7.0 0.00 0.00 0.00 61 1015.7
20260507004054 68 333 2.6 4.3 0.00 0.00 0.00 62 1015.7
20260507003554 68 324 2.6 5.2 0.00 0.00 0.00 62 1015.6
20260507003054 68 316 0.9 3.5 0.00 0.00 0.00 62 1015.6
20260507002555 69 330 2.6 5.2 0.00 0.00 0.00 62 1015.6
20260507002054 69 326 3.5 7.0 0.00 0.00 0.00 61 1015.5
20260507001554 69 322 1.7 2.6 0.00 0.00 0.00 62 1015.5
20260507001054 70 325 2.6 4.3 0.00 0.00 0.00 61 1015.5
20260507000554 70 308 1.7 2.6 0.00 0.00 0.00 61 1015.4
20260507000054 70 305 1.7 3.5 0.00 0.00 0.00 60 1015.5
20260506235554 70 308 1.7 3.5 0.00 0.00 0.00 60 1015.5
20260506235055 70 313 1.7 4.3 0.00 0.00 0.00 60 1015.5
20260506234555 69 322 1.7 4.3 0.00 0.00 0.00 61 1015.5
20260506234054 70 307 3.5 5.2 0.00 0.00 0.00 59 1015.5
20260506233554 70 302 0.9 2.6 0.00 0.00 0.00 60 1015.5
20260506233054 70 330 3.5 4.3 0.00 0.00 0.00 61 1015.5
20260506232554 70 326 2.6 5.2 0.00 0.00 0.00 61 1015.5
20260506232055 70 320 3.5 6.1 0.00 0.00 0.00 62 1015.5
20260506231554 71 320 1.7 2.6 0.00 0.00 0.00 61 1015.6
20260506231054 71 307 1.7 4.3 0.00 0.00 0.00 60 1015.6
20260506230554 71 287 1.7 2.6 0.00 0.00 0.00 60 1015.6
20260506230054 71 274 0.9 2.6 0.00 0.00 0.00 60 1015.6
20260506225554 71 309 1.7 3.5 0.00 0.00 0.00 60 1015.6
20260506225055 71 307 1.7 3.5 0.00 0.00 0.00 60 1015.7
20260506224554 71 296 2.6 5.2 0.00 0.00 0.00 61 1015.7
20260506224055 71 319 2.6 4.3 0.00 0.00 0.00 61 1015.7
20260506223555 71 309 1.7 2.6 0.00 0.00 0.00 60 1015.7
20260506223054 71 316 1.7 3.5 0.00 0.00 0.00 60 1015.8
20260506222554 72 302 1.7 2.6 0.00 0.00 0.00 59 1015.8
20260506222054 72 216 0.9 2.6 0.00 0.00 0.00 59 1015.8
20260506221554 72 300 1.7 3.5 0.00 0.00 0.00 58 1015.9
20260506221054 72 311 1.7 2.6 0.00 0.00 0.00 59 1015.9
20260506220555 72 317 1.7 3.5 0.00 0.00 0.00 57 1016.0
20260506220054 72 318 0.9 1.7 0.00 0.00 0.00 58 1016.0
20260506215554 72 302 0.9 1.7 0.00 0.00 0.00 58 1016.0
20260506215054 73 333 1.7 5.2 0.00 0.00 0.00 57 1016.0
20260506214554 73 303 1.7 6.1 0.00 0.00 0.00 57 1016.0
20260506214054 73 302 1.7 3.5 0.00 0.00 0.00 57 1016.1
20260506213554 72 270 1.7 4.3 0.00 0.00 0.00 57 1016.1
20260506213057 72 316 1.7 3.5 0.00 0.00 0.00 57 1016.2
20260506212554 72 305 1.7 3.5 0.00 0.00 0.00 59 1016.2
20260506212054 72 310 1.7 2.6 0.00 0.00 0.00 58 1016.2
20260506211555 73 328 2.6 4.3 0.00 0.00 0.00 58 1016.2
20260506211055 73 317 3.5 5.2 0.00 0.00 0.00 57 1016.2
20260506210555 73 299 0.9 1.7 0.00 0.00 0.00 57 1016.3
20260506210055 73 316 0.9 2.6 0.00 0.00 0.00 57 1016.3
20260506205554 73 301 0.9 2.6 0.00 0.00 0.00 58 1016.3
20260506205054 72 190 0.9 2.6 0.00 0.00 0.00 58 1016.4
20260506204554 72 328 0.9 2.6 0.00 0.00 0.00 58 1016.3
20260506204054 72 299 0.9 2.6 0.00 0.00 0.00 57 1016.4
20260506203554 72 315 1.7 4.3 0.00 0.00 0.00 58 1016.3
20260506203054 73 337 3.5 7.0 0.00 0.00 0.00 58 1016.3
20260506202555 73 313 0.9 2.6 0.00 0.00 0.00 56 1016.4
20260506202055 74 314 0.9 2.6 0.00 0.00 0.00 56 1016.5
20260506201556 74 225 2.6 5.2 0.00 0.00 0.00 55 1016.4
20260506201057 75 300 1.7 3.5 0.00 0.00 0.00 55 1016.4
20260506200555 75 226 0.9 2.6 0.00 0.00 0.00 55 1016.5
20260506200054 75 288 1.7 5.2 0.00 0.00 0.00 53 1016.5
20260506195554 74 128 0.9 1.7 0.00 0.00 0.00 54 1016.5
20260506195054 74 317 0.9 2.6 0.00 0.00 0.00 55 1016.6
20260506194554 74 191 1.7 4.3 0.00 0.00 0.00 54 1016.6
20260506194054 74 327 1.7 3.5 0.00 0.00 0.00 54 1016.7
20260506193554 75 307 1.7 2.6 0.00 0.00 0.00 53 1016.7
20260506193054 74 214 0.9 3.5 0.00 0.00 0.00 54 1016.8
20260506192554 75 304 1.7 3.5 0.00 0.00 0.00 53 1016.8
20260506192054 74 184 0.9 2.6 0.00 0.00 0.00 54 1016.8
20260506191555 74 201 0.9 1.7 0.00 0.00 0.00 53 1016.9
20260506191055 74 308 1.7 5.2 0.00 0.00 0.00 53 1016.9
20260506190125 73 319 1.7 2.6 0.00 0.00 0.00 53 1017.0
20260506185556 73 308 1.7 2.6 0.00 0.00 0.00 54 1017.1
20260506185055 73 350 3.5 6.1 0.00 0.00 0.00 54 1017.0
20260506184555 73 192 2.6 5.2 0.00 0.00 0.00 55 1017.1
20260506184054 72 17 0.9 2.6 0.00 0.00 0.00 57 1017.2
20260506183555 72 332 1.7 2.6 0.00 0.00 0.00 55 1017.3
20260506183054 71 90 0.9 2.6 0.00 0.00 0.00 55 1017.4
20260506182554 71 327 2.6 3.5 0.00 0.00 0.00 54 1017.4
20260506182054 71 347 4.3 7.0 0.00 0.00 0.00 53 1017.4
20260506181555 70 311 0.9 2.6 0.00 0.00 0.00 55 1017.4
20260506181054 70 327 1.7 3.5 0.00 0.00 0.00 55 1017.5
20260506180555 70 345 2.6 5.2 0.00 0.00 0.00 55 1017.6
20260506180054 70 333 1.7 5.2 0.00 0.00 0.00 56 1017.6
20260506175554 70 327 1.7 4.3 0.00 0.00 0.00 56 1017.7
20260506175054 69 7 2.6 4.3 0.00 0.00 0.00 57 1017.7
20260506174554 69 350 2.6 5.2 0.00 0.00 0.00 57 1017.8
20260506174054 69 315 0.9 2.6 0.00 0.00 0.00 58 1017.8
20260506173555 69 318 1.7 3.5 0.00 0.00 0.00 57 1017.8
20260506173055 68 314 1.7 3.5 0.00 0.00 0.00 57 1017.9
20260506172555 68 352 3.5 5.2 0.00 0.00 0.00 59 1017.9
20260506172055 69 326 4.3 7.8 0.00 0.00 0.00 58 1018.0
20260506171555 69 353 0.9 1.7 0.00 0.00 0.00 57 1018.1
20260506171058 69 309 1.7 3.5 0.00 0.00 0.00 57 1018.0
20260506170555 68 353 1.7 3.5 0.00 0.00 0.00 59 1018.0
20260506170054 67 143 0.9 1.7 0.00 0.00 0.00 60 1018.0
20260506165556 67 334 1.7 3.5 0.00 0.00 0.00 62 1018.0
20260506165054 67 327 1.7 4.3 0.00 0.00 0.00 61 1018.0
20260506164557 66 329 0.9 2.6 0.00 0.00 0.00 63 1017.9
20260506164054 66 4 3.5 6.1 0.00 0.00 0.00 62 1017.9
20260506163555 66 353 3.5 4.3 0.00 0.00 0.00 63 1018.0
20260506163054 66 352 1.7 3.5 0.00 0.00 0.00 62 1018.1
20260506162555 66 0 3.5 4.3 0.00 0.00 0.00 64 1018.1
20260506162055 65 345 2.6 3.5 0.00 0.00 0.00 65 1018.1
20260506161554 65 303 0.0 0.9 0.00 0.00 0.00 66 1018.1
20260506161055 66 91 2.6 5.2 0.00 0.00 0.00 64 1018.1
20260506160555 65 92 0.9 2.6 0.00 0.00 0.00 65 1018.1
20260506160055 64 160 0.9 2.6 0.00 0.00 0.00 67 1018.1
20260506155554 64 97 2.6 3.5 0.00 0.00 0.00 66 1018.1
20260506155055 64 117 1.7 4.3 0.00 0.00 0.00 67 1018.1
20260506154555 63 61 1.7 3.5 0.00 0.00 0.00 68 1018.0
20260506154054 63 44 2.6 5.2 0.00 0.00 0.00 69 1018.1
20260506153554 63 359 2.6 4.3 0.00 0.00 0.00 68 1018.1
20260506153054 63 37 2.6 3.5 0.00 0.00 0.00 68 1018.1
20260506152555 62 48 2.6 3.5 0.00 0.00 0.00 69 1018.1
20260506152055 62 36 1.7 3.5 0.00 0.00 0.00 70 1018.2
20260506151126 61 35 1.7 3.5 0.00 0.00 0.00 72 1018.2
20260506150555 61 2 2.6 3.5 0.00 0.00 0.00 72 1018.2
20260506150054 61 29 3.5 4.3 0.00 0.00 0.00 72 1018.2
20260506145555 60 12 2.6 3.5 0.00 0.00 0.00 73 1018.2
20260506145054 60 13 2.6 3.5 0.00 0.00 0.00 74 1018.1
20260506144554 59 41 1.7 2.6 0.00 0.00 0.00 75 1018.1
20260506144054 59 5 1.7 3.5 0.00 0.00 0.00 77 1018.0
20260506143556 59 30 1.7 2.6 0.00 0.00 0.00 76 1018.0
20260506143055 58 41 1.7 3.5 0.00 0.00 0.00 77 1018.0
20260506142554 58 25 1.7 2.6 0.00 0.00 0.00 78 1018.0
20260506142055 57 13 1.7 2.6 0.00 0.00 0.00 78 1018.0
20260506141554 57 37 2.6 4.3 0.00 0.00 0.00 79 1017.9
20260506141055 56 30 2.6 3.5 0.00 0.00 0.00 79 1017.9
20260506140555 56 21 2.6 3.5 0.00 0.00 0.00 80 1017.9
20260506140055 55 36 2.6 3.5 0.00 0.00 0.00 81 1017.9
20260506135554 54 31 1.7 2.6 0.00 0.00 0.00 84 1017.9
20260506135054 54 22 1.7 2.6 0.00 0.00 0.00 85 1017.8
20260506134554 54 24 1.7 2.6 0.00 0.00 0.00 85 1017.7
20260506134055 54 29 1.7 1.7 0.00 0.00 0.00 85 1017.7
20260506133555 54 24 1.7 2.6 0.00 0.00 0.00 84 1017.6
20260506133054 53 69 0.0 1.7 0.00 0.00 0.00 85 1017.5
20260506132554 53 58 1.7 3.5 0.00 0.00 0.00 87 1017.5
20260506132055 53 48 2.6 4.3 0.00 0.00 0.00 87 1017.5
20260506131555 52 28 1.7 3.5 0.00 0.00 0.00 88 1017.5
20260506131054 52 18 1.7 2.6 0.00 0.00 0.00 88 1017.4
20260506130558 52 20 1.7 2.6 0.00 0.00 0.00 88 1017.4
20260506130054 52 24 1.7 3.5 0.00 0.00 0.00 88 1017.4
20260506125554 52 19 1.7 3.5 0.00 0.00 0.00 88 1017.3
20260506125054 52 25 2.6 3.5 0.00 0.00 0.00 88 1017.2
20260506124555 52 24 1.7 2.6 0.00 0.00 0.00 88 1017.1
20260506124054 53 25 1.7 3.5 0.00 0.00 0.00 88 1017.2
20260506123555 53 36 1.7 2.6 0.00 0.00 0.00 88 1017.1
20260506123055 53 29 1.7 2.6 0.00 0.00 0.00 87 1017.1
20260506122554 53 42 2.6 3.5 0.00 0.00 0.00 87 1017.1
20260506122054 53 24 2.6 3.5 0.00 0.00 0.00 88 1017.1
20260506121554 53 0 1.7 2.6 0.00 0.00 0.00 87 1017.1
20260506120605 53 45 1.7 2.6 0.00 0.00 0.00 87 1017.0
20260506120059 53 38 1.7 2.6 0.00 0.00 0.00 87 1017.0
20260506115554 53 359 1.7 3.5 0.00 0.00 0.00 87 1017.0
20260506115054 53 350 1.7 2.6 0.00 0.00 0.00 87 1017.0
20260506114554 53 15 0.9 0.9 0.00 0.00 0.00 87 1016.9
20260506114054 53 0 0.0 0.0 0.00 0.00 0.00 86 1016.9
20260506113554 53 0 0.0 0.0 0.00 0.00 0.00 86 1016.9
20260506113055 53 4 0.9 1.7 0.00 0.00 0.00 86 1017.0
20260506112554 54 44 0.0 0.9 0.00 0.00 0.00 85 1016.9
20260506112054 54 16 0.0 0.9 0.00 0.00 0.00 85 1016.9
20260506111554 54 19 0.9 1.7 0.00 0.00 0.00 85 1016.9
20260506111055 54 4 1.7 1.7 0.00 0.00 0.00 85 1016.9
20260506110554 54 3 0.0 0.9 0.00 0.00 0.00 84 1016.9
20260506110054 55 36 1.7 1.7 0.00 0.00 0.00 84 1016.9
20260506105554 55 30 0.9 1.7 0.00 0.00 0.00 83 1016.9
20260506105055 55 16 1.7 2.6 0.00 0.00 0.00 82 1017.0
20260506104554 55 27 1.7 2.6 0.00 0.00 0.00 83 1017.0
20260506104054 55 40 2.6 3.5 0.00 0.00 0.00 83 1017.0
20260506103554 55 17 1.7 3.5 0.00 0.00 0.00 82 1016.9
20260506103055 55 49 1.7 2.6 0.00 0.00 0.00 82 1016.9
20260506102554 55 42 1.7 2.6 0.00 0.00 0.00 83 1016.9
20260506102054 55 22 1.7 1.7 0.00 0.00 0.00 82 1016.8
20260506101554 55 23 1.7 1.7 0.00 0.00 0.00 81 1016.8
20260506101056 55 39 1.7 3.5 0.00 0.00 0.00 82 1017.1
20260506100554 55 2 0.9 1.7 0.00 0.00 0.00 83 1017.1
20260506100055 55 39 0.0 1.7 0.00 0.00 0.00 83 1017.1
20260506095555 54 48 0.9 1.7 0.00 0.00 0.00 84 1017.1
20260506095055 54 40 0.0 0.9 0.00 0.00 0.00 84 1017.1
20260506094554 54 0 0.0 0.0 0.00 0.00 0.00 84 1017.1
20260506094054 54 0 0.0 0.0 0.00 0.00 0.00 84 1017.1
20260506093555 54 41 0.0 1.7 0.00 0.00 0.00 84 1017.1
20260506093054 53 61 0.0 1.7 0.00 0.00 0.00 85 1017.1
20260506092555 53 91 0.0 0.9 0.00 0.00 0.00 85 1017.1
20260506092055 53 35 0.9 1.7 0.00 0.00 0.00 85 1017.1
20260506091554 53 2 0.0 0.9 0.00 0.00 0.00 85 1017.0
20260506091054 54 44 0.9 0.9 0.00 0.00 0.00 85 1017.1
20260506090554 54 0 0.0 0.0 0.00 0.00 0.00 84 1017.1
20260506090054 54 0 0.0 0.0 0.00 0.00 0.00 84 1017.2
20260506085557 54 0 0.0 0.0 0.00 0.00 0.00 84 1017.3
20260506085055 54 32 0.9 0.9 0.00 0.00 0.00 83 1017.4
20260506084554 54 11 0.9 0.9 0.00 0.00 0.00 83 1017.4
20260506084055 54 356 0.0 0.9 0.00 0.00 0.00 83 1017.5
20260506083554 54 43 0.9 1.7 0.00 0.00 0.00 83 1017.6
20260506083055 54 43 0.0 0.9 0.00 0.00 0.00 83 1017.7
20260506082554 54 40 0.9 1.7 0.00 0.00 0.00 83 1017.7
20260506082055 54 23 0.9 1.7 0.00 0.00 0.00 83 1017.7
20260506081555 54 33 1.7 2.6 0.00 0.00 0.00 83 1017.7
20260506081054 54 30 1.7 1.7 0.00 0.00 0.00 83 1017.7
20260506080554 54 24 0.9 1.7 0.00 0.00 0.00 83 1017.7
20260506073055 54 49 1.7 2.6 0.00 0.00 0.00 83 1017.9
20260506072554 54 15 0.0 0.9 0.00 0.00 0.00 83 1017.9
20260506072054 54 14 0.0 0.9 0.00 0.00 0.00 83 1017.9
20260506071554 55 46 0.0 0.9 0.00 0.00 0.00 83 1017.9
20260506071055 55 10 0.0 0.9 0.00 0.00 0.00 83 1017.9
20260506070554 55 39 0.0 0.9 0.00 0.00 0.00 82 1017.8
20260506062054 56 43 0.0 0.0 0.00 0.00 0.31 81 1017.5
20260506061555 56 0 0.0 0.0 0.00 0.00 0.31 80 1017.5
20260506061054 56 0 0.0 0.0 0.00 0.00 0.31 79 1017.5
20260506060555 57 47 0.0 0.9 0.00 0.00 0.31 78 1017.6
20260506051054 57 3 0.9 1.7 0.00 0.00 0.31 77 1017.6
20260506050554 57 0 0.0 0.0 0.00 0.00 0.31 77 1017.6
20260506045054 57 113 0.0 0.9 0.00 0.00 0.31 77 1017.4
20260506044554 57 0 0.0 0.0 0.00 0.00 0.31 78 1017.3
20260506044054 57 103 0.0 0.9 0.00 0.00 0.31 77 1017.2
20260506043555 56 93 0.0 0.9 0.00 0.00 0.31 78 1017.1
20260506043054 57 0 0.0 0.0 0.00 0.00 0.31 78 1017.1
20260506042554 57 0 0.0 0.0 0.00 0.00 0.31 77 1017.1
20260506042055 57 0 0.0 0.0 0.00 0.00 0.31 77 1017.0
20260506041554 57 41 0.0 1.7 0.00 0.00 0.31 77 1017.0
20260506041054 57 12 0.0 0.9 0.00 0.00 0.31 77 1016.9
20260506040554 57 13 0.0 0.9 0.00 0.00 0.31 76 1016.8
20260506040054 57 0 0.0 0.0 0.00 0.00 0.31 76 1016.8
20260506035554 57 55 0.0 0.0 0.00 0.00 0.31 75 1016.6
20260506035054 58 0 0.0 0.0 0.00 0.00 0.31 75 1016.6
20260506034554 58 7 0.0 0.9 0.00 0.00 0.31 74 1016.5
20260506034055 58 0 0.0 0.0 0.00 0.00 0.31 73 1016.5
20260506033554 58 0 0.0 0.0 0.00 0.00 0.31 73 1016.4
20260506033054 59 5 0.0 0.9 0.00 0.00 0.31 72 1016.3
20260506032554 59 347 0.0 0.9 0.00 0.00 0.31 72 1016.2
20260506032054 59 345 0.0 0.9 0.00 0.00 0.31 72 1016.2
20260506031554 59 334 0.0 0.9 0.00 0.00 0.31 72 1016.2
20260506031054 59 348 0.0 0.9 0.00 0.00 0.31 73 1016.1
20260506030554 59 358 0.9 1.7 0.00 0.00 0.31 72 1016.0
20260506030054 59 320 0.9 1.7 0.00 0.00 0.31 72 1016.0
20260506025554 59 342 0.0 1.7 0.00 0.00 0.31 72 1015.9
20260506025054 60 346 0.0 1.7 0.00 0.00 0.31 72 1015.8
20260506024554 60 342 0.9 2.6 0.00 0.00 0.31 71 1015.8
20260506024054 60 331 0.9 0.9 0.00 0.00 0.31 71 1015.7
20260506023554 60 354 0.0 0.9 0.00 0.00 0.31 70 1015.6
20260506023054 60 339 0.9 1.7 0.00 0.00 0.31 70 1015.5
20260506022554 61 337 2.6 5.2 0.00 0.00 0.31 69 1015.5
20260506022054 61 352 0.9 1.7 0.00 0.00 0.31 69 1015.4
20260506021554 61 333 0.9 1.7 0.00 0.00 0.31 68 1015.4